カタログに戻る

MESON-1

運用中科学SSO
NORAD 59131·PAYLOAD·🇺🇸 United States

打ち上げ Mar 4, 2024 から Vandenberg Space Force Base

Loading…

次のパス (今後24時間)

TLE

最新Source: Space-Track

元期: Sep 14, 2026, 03:05 UTC

1 59131U 24043AK  26257.12882079  .00004491  00000-0  14801-3 0  9996
2 59131  97.5776  37.1549 0008463 288.5544  71.4778 15.31973105140697

AllMySatでMESON-1をリアルタイム追跡

Download on the App Store